1312416030696,0.000145308
1312416090696,0.000147545
1312416150696,0.000145249
1312416210696,0.000144229
1312416270696,0.000145537
1312416330696,0.000144849
1312416390696,0.000143248
1312416450696,0.000145440
1312416510696,0.000143850
1312416570696,0.000144707
1312416630696,0.000144717
1312416690696,0.000146327
1312416750696,0.000144755
1312416810696,0.000146655
1312416870696,0.000146510
1312416930696,0.000147722
1312416990696,0.000146840
1312417050696,0.000144981
1312417110696,0.000145524
1312417170696,0.000146468
1312417230696,0.000146522
1312417290696,0.000145510
1312417350696,0.000145576
1312417410696,0.000146096
1312417470696,0.000145056
1312417530696,0.000145393
1312417590696,0.000146515
1312417650696,0.000146912
1312417710696,0.000146265
1312417770696,0.000145852
1312417830696,0.000147048
1312417890696,0.000147035
1312417950696,0.000147403
1312418010696,0.000147291
1312418070696,0.000145460
1312418130696,0.000146175
1312418190696,0.000148202
1312418250696,0.000148504
1312418310696,0.000146617
1312418370696,0.000147454
1312418430696,0.000145532
1312418490696,0.000145587
1312418550696,0.000147865
1312418610696,0.000146022
1312418670696,0.000145588
1312418730696,0.000145366
1312418790696,0.000143877
1312418850696,0.000145828
1312418910696,0.000152693
1312418970696,0.000160599
1312419030696,0.000151053
1312419090696,0.000149926
1312419150696,0.000151430
1312419210696,0.000153723
1312419270696,0.000150611
1312419330696,0.000148923
1312419390696,0.000149731
1312419450696,0.000151239
1312419510696,0.000149757
1312419570696,0.000152424
1312419630705,0.000149901
1312419690705,0.000152684
1312419750705,0.000151347
1312419810705,0.000152137
1312419870705,0.000151176
1312419930705,0.000150761
1312419990705,0.000149324
1312420050705,0.000149643
1312420110705,0.000151635
1312420170705,0.000151637
1312420230705,0.000149551
1312420290705,0.000149719
1312420350705,0.000148829
1312420410705,0.000149337
1312420470705,0.000148217
1312420530705,0.000150798
1312420590705,0.000150660
1312420650705,0.000149898
1312420710705,0.000149114
1312420770705,0.000147417
1312420830705,0.000148434
1312420890705,0.000147753
1312420950705,0.000148822
1312421010705,0.000146661
1312421070705,0.000147693
1312421130705,0.000145184
1312421190705,0.000146689
1312421250705,0.000146105
1312421310705,0.000147052
1312421370705,0.000145930
1312421430705,0.000147103
1312421490705,0.000147025
1312421550705,0.000146761
1312421610705,0.000145417
1312421670705,0.000145290
1312421730705,0.000145570
1312421790705,0.000146431
1312421850705,0.000144528
1312421910705,0.000145873
1312421970705,0.000146452
1312422030705,0.000145945
1312422090705,0.000144334
1312422150705,0.000146721
1312422210705,0.000145604
1312422270705,0.000146104
1312422330705,0.000146608
1312422390705,0.000146732
1312422450705,0.000144207
1312422510705,0.000144637
1312422570705,0.000145410
1312422630705,0.000146090
1312422690705,0.000144997
1312422750705,0.000144621
1312422810705,0.000145126
1312422870705,0.000146381
1312422930705,0.000146055
1312422990705,0.000144952
1312423050705,0.000145784
1312423110705,0.000144682
1312423170705,0.000144871
1312423230715,0.000145512
1312423290715,0.000143877
1312423350715,0.000147415
1312423410715,0.000146250
1312423470715,0.000147146
1312423530715,0.000146027
1312423590715,0.000144356
1312423650715,0.000145058
1312423710715,0.000145256
1312423770715,0.000145179
1312423830715,0.000145475
1312423890715,0.000143835
1312423950715,0.000144707
1312424010715,0.000143422
1312424070715,0.000144884
1312424130715,0.000143915
1312424190715,0.000146926
1312424250715,0.000148911
1312424310715,0.000148595
1312424370715,0.000149537
1312424430715,0.000151359
1312424490715,0.000161164
1312424550715,0.000163112
1312424610715,0.000159313
1312424670715,0.000153644
1312424730715,0.000150892
1312424790715,0.000149553
1312424850715,0.000149884
1312424910715,0.000145960
1312424970715,0.000148076
1312425030715,0.000147204
1312425090715,0.000148196
1312425150715,0.000147959
1312425210715,0.000147835
1312425270715,0.000146221
1312425330715,0.000147477
1312425390715,0.000146233
1312425450715,0.000146140
1312425510715,0.000146951
1312425570715,0.000145896
1312425630715,0.000147601
1312425690715,0.000144943
1312425750715,0.000146815
1312425810715,0.000146110
1312425870715,0.000146503
1312425930715,0.000146726
1312425990715,0.000144595
1312426050715,0.000145914
1312426110715,0.000143476
1312426170715,0.000144475
1312426230715,0.000146635
1312426290715,0.000144461
1312426350715,0.000147207
1312426410715,0.000146907
1312426470715,0.000145956
1312426530715,0.000145793
1312426590715,0.000144348
1312426650715,0.000145929
1312426710715,0.000145203
1312426770715,0.000144412
1312426830724,0.000143770
1312426890724,0.000145394
1312426950724,0.000146684
1312427010724,0.000147580
1312427070724,0.000145685
1312427130724,0.000144711
1312427190724,0.000145771
1312427250724,0.000145279
1312427310724,0.000143693
1312427370724,0.000144890
1312427430724,0.000145541
1312427490724,0.000145821
1312427550724,0.000146382
1312427610724,0.000147251
1312427670724,0.000146243
1312427730724,0.000146274
1312427790724,0.000146501
1312427850724,0.000145999
1312427910724,0.000146283
1312427970724,0.000148227
1312428030724,0.000146030
1312428090724,0.000145706
1312428150724,0.000144903
1312428210724,0.000144647
1312428270724,0.000145221
1312428330724,0.000144737
1312428390724,0.000144577
1312428450724,0.000145862
1312428510724,0.000145890
1312428570724,0.000145609
1312428630724,0.000146115
1312428690724,0.000146526
1312428750724,0.000146550
1312428810724,0.000147888
1312428870724,0.000145827
1312428930724,0.000145474
1312428990724,0.000145679
1312429050724,0.000145395
1312429110724,0.000145271
1312429170724,0.000146211
1312429230724,0.000146421
1312429290724,0.000147773
1312429350724,0.000148155
1312429410724,0.000150886
1312429470724,0.000164505
1312429530724,0.000182741
1312429590724,0.000178107
1312429650724,0.000179200
1312429710724,0.000179959
1312429770724,0.000207204
1312429830724,0.000257397
1312429890724,0.000356279
1312429950724,0.000343581
1312430010724,0.000341101
1312430070724,0.000339922
1312430130724,0.000292560
1312430190724,0.000264829
1312430250724,0.000246609
1312430310724,0.000234198
1312430370724,0.000217663
1312430430733,0.000207743
1312430490733,0.000205580
1312430550733,0.000197818
1312430610733,0.000195962
1312430670733,0.000190646
1312430730733,0.000188969
1312430790733,0.000180825
1312430850733,0.000176717
1312430910733,0.000177784
1312430970733,0.000176131
1312431030733,0.000173833
1312431090733,0.000171076
1312431150733,0.000169469
1312431210733,0.000166841
1312431270733,0.000167238
1312431330733,0.000169292
1312431390733,0.000166167
1312431450733,0.000165398
1312431510733,0.000163952
1312431570733,0.000162806
1312431630733,0.000160554
1312431690733,0.000157994
1312431750733,0.000157693
1312431810733,0.000155013
1312431870733,0.000163182
1312431930733,0.000168425
1312431990733,0.000162422
1312432050733,0.000157301
1312432110733,0.000155625
1312432170733,0.000152942
1312432230733,0.000152186
1312432290733,0.000151059
1312432350733,0.000152247
1312432410733,0.000150819
1312432470733,0.000151382
1312432530733,0.000150455
1312432590733,0.000151722
1312432650733,0.000151600
1312432710733,0.000151452
1312432770733,0.000151344
1312432830733,0.000151285
1312432890733,0.000148714
1312432950733,0.000148812
1312433010733,0.000147534
1312433070733,0.000148410
1312433130733,0.000148311
1312433190733,0.000147574
1312433250733,0.000149609
1312433310733,0.000149235
1312433370733,0.000147996
1312433430733,0.000148166
1312433490733,0.000147096
1312433550733,0.000148976
1312433610733,0.000148569
1312433670733,0.000147779
1312433730733,0.000147163
1312433790733,0.000147988
1312433850733,0.000147637
1312433910733,0.000148847
1312433970733,0.000148994
1312434030742,0.000147715
1312434090742,0.000148013
1312434150742,0.000148491
1312434210742,0.000149623
1312434270742,0.000149849
1312434330742,0.000147984
1312434390742,0.000148672
1312434450742,0.000148168
1312434510742,0.000148332
1312434570742,0.000150028
1312434630742,0.000147687
1312434690742,0.000146767
1312434750742,0.000148546
1312434810742,0.000148058
1312434870742,0.000149294
1312434930742,0.000146461
1312434990742,0.000146897
1312435050742,0.000147378
1312435110742,0.000148388
1312435170742,0.000147736
1312435230742,0.000147065
1312435290742,0.000146688
1312435350742,0.000147656
1312435410742,0.000147325
1312435470742,0.000147509
1312435530742,0.000148258
1312435590742,0.000149199
1312435650742,0.000151347
1312435710742,0.000148695
1312435770742,0.000153509
1312435830742,0.000151721
1312435890742,0.000148243
1312435950742,0.000149845
1312436010742,0.000149325
1312436070742,0.000149158
1312436130742,0.000149005
1312436190742,0.000148674
1312436250742,0.000147876
1312436310742,0.000148298
1312436370742,0.000149888
1312436430742,0.000150218
1312436490742,0.000148731
1312436550742,0.000147451
1312436610742,0.000148561
1312436670742,0.000146749
1312436730742,0.000147098
1312436790742,0.000147420
1312436850742,0.000149105
1312436910742,0.000148545
1312436970742,0.000146379
1312437030742,0.000147701
1312437090742,0.000147644
1312437150742,0.000148783
1312437210742,0.000147545
1312437270742,0.000146572
1312437330742,0.000146633
1312437390742,0.000147278
1312437450742,0.000145591
1312437510742,0.000147892
1312437570742,0.000145737
1312437630751,0.000147735
1312437690751,0.000147078
1312437750751,0.000146899
1312437810751,0.000145944
1312437870751,0.000146497
1312437930751,0.000147210
1312437990751,0.000146242
1312438050751,0.000145535
1312438110751,0.000145480
1312438170751,0.000147418
1312438230751,0.000144099
1312438290751,0.000144959
1312438350751,0.000148191
1312438410751,0.000143491
1312438470751,0.000145177
1312438530751,0.000143866
1312438590751,0.000145448
1312438650751,0.000145174
1312438710751,0.000144894
1312438770751,0.000147397
1312438830751,0.000147354
1312438890751,0.000148443
1312438950751,0.000148022
1312439010751,0.000147763
1312439070751,0.000148801
1312439130751,0.000150470
1312439190751,0.000156954
1312439250751,0.000161023
1312439310751,0.000152583
1312439370751,0.000150306
1312439430751,0.000147937
1312439490751,0.000148176
1312439550751,0.000148676
1312439610751,0.000147630
1312439670751,0.000146344
1312439730751,0.000147513
1312439790751,0.000147422
1312439850751,0.000145816
1312439910751,0.000144996
1312439970751,0.000143676
1312440030751,0.000144939
1312440090751,0.000144051
1312440150751,0.000145379
1312440210751,0.000143412
1312440270751,0.000147063
1312440330751,0.000145025
1312440390751,0.000144382
1312440450751,0.000146241
1312440510751,0.000145856
1312440570751,0.000146904
1312440630751,0.000146111
1312440690751,0.000144988
1312440750751,0.000146969
1312440810751,0.000145691
1312440870751,0.000147011
1312440930751,0.000144907
1312440990751,0.000143256
1312441050751,0.000145418
1312441110751,0.000143993
1312441170751,0.000145805
1312441230760,0.000144999
1312441290760,0.000144589
1312441350760,0.000143506
1312441410760,0.000144839
1312441470760,0.000144017
1312441530760,0.000143806
1312441590760,0.000144719
1312441650760,0.000143471
1312441710760,0.000144770
1312441770760,0.000145438
1312441830760,0.000144528
1312441890760,0.000144327
1312441950760,0.000143552
1312442010760,0.000142477
1312442070760,0.000142653
1312442130760,0.000142794
1312442190760,0.000143075
1312442250760,0.000144859
1312442310760,0.000145030
1312442370760,0.000144201
1312442430760,0.000142512
1312442490760,0.000144477
1312442550760,0.000143505
1312442610760,0.000145124
1312442670760,0.000142936
1312442730760,0.000144345
1312442790760,0.000143468
1312442850760,0.000144740
1312442910760,0.000144298
1312442970760,0.000145326
1312443030760,0.000145841
1312443090760,0.000146059
1312443150760,0.000144465
1312443210760,0.000143447
1312443270760,0.000145021
1312443330760,0.000142965
1312443390760,0.000143769
1312443450760,0.000143102
1312443510760,0.000142066
1312443570760,0.000144617
1312443630760,0.000143436
1312443690760,0.000143796
1312443750760,0.000143253
1312443810760,0.000143665
1312443870760,0.000144326
1312443930760,0.000143843
1312443990760,0.000142856
1312444050760,0.000144293
1312444110760,0.000146689
1312444170760,0.000145494
1312444230760,0.000145061
1312444290760,0.000144671
1312444350760,0.000144278
1312444410760,0.000145652
1312444470760,0.000146021
1312444530760,0.000144157
1312444590760,0.000145489
1312444650760,0.000145751
1312444710760,0.000149496
1312444770760,0.000151481
1312444830769,0.000149816
1312444890769,0.000152493
1312444950769,0.000148768
1312445010769,0.000146335
1312445070769,0.000144907
1312445130769,0.000146530
1312445190769,0.000146252
1312445250769,0.000144380
1312445310769,0.000144529
1312445370769,0.000143948
1312445430769,0.000144202
1312445490769,0.000144035
1312445550769,0.000143035
1312445610769,0.000143707
1312445670769,0.000145019
1312445730769,0.000143944
1312445790769,0.000143888
1312445850769,0.000144592
1312445910769,0.000144854
1312445970769,0.000143621
1312446030769,0.000144907
1312446090769,0.000145846
1312446150769,0.000147026
1312446210769,0.000146135
1312446270769,0.000145336
1312446330769,0.000143399
1312446390769,0.000143934
1312446450769,0.000143351
1312446510769,0.000145231
1312446570769,0.000144547
1312446630769,0.000143362
1312446690769,0.000143679
1312446750769,0.000145198
1312446810769,0.000143622
1312446870769,0.000143561
1312446930769,0.000143583
1312446990769,0.000144956
1312447050769,0.000144313
1312447110769,0.000148382
1312447170769,0.000149449
1312447230769,0.000146331
1312447290769,0.000145801
1312447350769,0.000146034
1312447410769,0.000145827
1312447470769,0.000147465
1312447530769,0.000146026
1312447590769,0.000147008
1312447650769,0.000146431
1312447710769,0.000144430
1312447770769,0.000144409
1312447830769,0.000143046
1312447890769,0.000144106
1312447950769,0.000145745
1312448010769,0.000144137
1312448070769,0.000144137
1312448130769,0.000143297
1312448190769,0.000145971
1312448250769,0.000144409
1312448310769,0.000143973
1312448370769,0.000145427
1312448430778,0.000144803
1312448490778,0.000143294
1312448550778,0.000143590
1312448610778,0.000143393
1312448670778,0.000143874
1312448730778,0.000145281
1312448790778,0.000143642
1312448850778,0.000142602
1312448910778,0.000144182
1312448970778,0.000142566
1312449030778,0.000145079
1312449090778,0.000143095
1312449150778,0.000144671
1312449210778,0.000143466
1312449270778,0.000144163
1312449330778,0.000143510
1312449390778,0.000144283
1312449450778,0.000146097
1312449510778,0.000157522
1312449570778,0.000149394
1312449630778,0.000147258
1312449690778,0.000145084
1312449750778,0.000145900
1312449810778,0.000145542
1312449870778,0.000143751
1312449930778,0.000142993
1312449990778,0.000143486
1312450050778,0.000143275
1312450110778,0.000144593
1312450170778,0.000143575
1312450230778,0.000144770
1312450290778,0.000146657
1312450350778,0.000143689
1312450410778,0.000145411
1312450470778,0.000146326
1312450530778,0.000146315
1312450590778,0.000146440
1312450650778,0.000147821
1312450710778,0.000147180
1312450770778,0.000147081
1312450830778,0.000145388
1312450890778,0.000146360
1312450950778,0.000148187
1312451010778,0.000147572
1312451070778,0.000145882
1312451130778,0.000147021
1312451190778,0.000145860
1312451250778,0.000144498
1312451310778,0.000145867
1312451370778,0.000146446
1312451430778,0.000145003
1312451490778,0.000145138
1312451550778,0.000145586
1312451610778,0.000143982
1312451670778,0.000145894
1312451730778,0.000144967
1312451790778,0.000145635
1312451850778,0.000145918
1312451910778,0.000145302
1312451970778,0.000144376
1312452030787,0.000145235
1312452090787,0.000146328
1312452150787,0.000145907
1312452210787,0.000146558
1312452270787,0.000146449
1312452330787,0.000147212
1312452390787,0.000146196
1312452450787,0.000148305
1312452510787,0.000152227
1312452570787,0.000156514
1312452630787,0.000158202
1312452690787,0.000157454
1312452750787,0.000155316
1312452810787,0.000153679
1312452870787,0.000149527
1312452930787,0.000148364
1312452990787,0.000146636
1312453050787,0.000145371
1312453110787,0.000146913
1312453170787,0.000146744
1312453230787,0.000145259
1312453290787,0.000145954
1312453350787,0.000145625
1312453410787,0.000147313
1312453470787,0.000146540
1312453530787,0.000145592
1312453590787,0.000143779
1312453650787,0.000144644
1312453710787,0.000145753
1312453770787,0.000146040
1312453830787,0.000142700
1312453890787,0.000145509
1312453950787,0.000144629
1312454010787,0.000145094
1312454070787,0.000144250
1312454130787,0.000144669
1312454190787,0.000142693
1312454250787,0.000144034
1312454310787,0.000145009
1312454370787,0.000143615
1312454430787,0.000143770
1312454490787,0.000144167
1312454550787,0.000144028
1312454610787,0.000144027
1312454670787,0.000143866
1312454730787,0.000144062
1312454790787,0.000144559
1312454850787,0.000145027
1312454910787,0.000146059
1312454970787,0.000144944
1312455030787,0.000146199
1312455090787,0.000146368
1312455150787,0.000147163
1312455210787,0.000145034
1312455270787,0.000145680
1312455330787,0.000143556
1312455390787,0.000144501
1312455450787,0.000145227
1312455510787,0.000144212
1312455570787,0.000144656
1312455630796,0.000145863
1312455690796,0.000146499
1312455750796,0.000144739
1312455810796,0.000145017
1312455870796,0.000147487
1312455930796,0.000146283
1312455990796,0.000146294
1312456050796,0.000147156
1312456110796,0.000145140
1312456170796,0.000146935
1312456230796,0.000145545
1312456290796,0.000147609
1312456350796,0.000146236
1312456410796,0.000146686
1312456470796,0.000145549
1312456530796,0.000146174
1312456590796,0.000146419
1312456650796,0.000145230
1312456710796,0.000148483
1312456770796,0.000145866
1312456830796,0.000146173
1312456890796,0.000147333
1312456950796,0.000146439
1312457010796,0.000148066
1312457070796,0.000147271
1312457130796,0.000146841
1312457190796,0.000146418
1312457250796,0.000145106
1312457310796,0.000144797
1312457370796,0.000146487
1312457430796,0.000146718
1312457490796,0.000144804
1312457550796,0.000144659
1312457610796,0.000144389
1312457670796,0.000144955
1312457730796,0.000144190
1312457790796,0.000145158
1312457850796,0.000145387
1312457910796,0.000146979
1312457970796,0.000145066
1312458030796,0.000145356
1312458090796,0.000145013
1312458150796,0.000145792
1312458210796,0.000145280
1312458270796,0.000147646
1312458330796,0.000149401
1312458390796,0.000150016
1312458450796,0.000148155
1312458510796,0.000146660
1312458570796,0.000146922
1312458630796,0.000147948
1312458690796,0.000148411
1312458750796,0.000147067
1312458810796,0.000144819
1312458870796,0.000144850
1312458930796,0.000145524
1312458990796,0.000145228
1312459050796,0.000144595
1312459110796,0.000145443
1312459170796,0.000145237
1312459230805,0.000145816
1312459290805,0.000144865
1312459350805,0.000145887
1312459410805,0.000143948
1312459470805,0.000145288
1312459530805,0.000143625
1312459590805,0.000145239
1312459650805,0.000144526
1312459710805,0.000145303
1312459770805,0.000144777
1312459830805,0.000145408
1312459890805,0.000144758
1312459950805,0.000145164
1312460010805,0.000145423
1312460070805,0.000143805
1312460130805,0.000145211
1312460190805,0.000144015
1312460250805,0.000145381
1312460310805,0.000145371
1312460370805,0.000145202
1312460430805,0.000144814
1312460490805,0.000145753
1312460550805,0.000147268
1312460610805,0.000146911
1312460670805,0.000145380
1312460730805,0.000145910
1312460790805,0.000144686
1312460850805,0.000144710
1312460910805,0.000144301
1312460970805,0.000143775
1312461030805,0.000145849
1312461090805,0.000145103
1312461150805,0.000145569
1312461210805,0.000145222
1312461270805,0.000144613
1312461330805,0.000144823
1312461390805,0.000145831
1312461450805,0.000144697
1312461510805,0.000145896
1312461570805,0.000145739
1312461630805,0.000144573
1312461690805,0.000146753
1312461750805,0.000144923
1312461810805,0.000144158
1312461870805,0.000143953
1312461930805,0.000145477
1312461990805,0.000145178
1312462050805,0.000144916
1312462110805,0.000145943
1312462170805,0.000145468
1312462230805,0.000143106
1312462290805,0.000145587
1312462350805,0.000144716
1312462410805,0.000146373
1312462470805,0.000148285
1312462530805,0.000147631
1312462590805,0.000145284
1312462650805,0.000145688
1312462710805,0.000144522
1312462770805,0.000145259
1312462830814,0.000144882
1312462890814,0.000145209
1312462950814,0.000144954
1312463010814,0.000144766
1312463070814,0.000144266
1312463130814,0.000149641
1312463190814,0.000164826
1312463250814,0.000151204
1312463310814,0.000148778
1312463370814,0.000147643
1312463430814,0.000146622
1312463490814,0.000146422
1312463550814,0.000147306
1312463610814,0.000148250
1312463670814,0.000147360
1312463730814,0.000146408
1312463790814,0.000146025
1312463850814,0.000146786
1312463910814,0.000145691
1312463970814,0.000145967
1312464030814,0.000145164
1312464090814,0.000144726
1312464150814,0.000145416
1312464210814,0.000143836
1312464270814,0.000143843
1312464330814,0.000143203
1312464390814,0.000144305
1312464450814,0.000143417
1312464510814,0.000144038
1312464570814,0.000144689
1312464630814,0.000142957
1312464690814,0.000144526
1312464750814,0.000144857
1312464810814,0.000146983
1312464870814,0.000145427
1312464930814,0.000143999
1312464990814,0.000144170
1312465050814,0.000144767
1312465110814,0.000144496
1312465170814,0.000144263
1312465230814,0.000143636
1312465290814,0.000145374
1312465350814,0.000143161
1312465410814,0.000144596
1312465470814,0.000144186
1312465530814,0.000145016
1312465590814,0.000142772
1312465650814,0.000145470
1312465710814,0.000144343
1312465770814,0.000147148
1312465830814,0.000146572
1312465890814,0.000145863
1312465950814,0.000144741
1312466010814,0.000144657
1312466070814,0.000144581
1312466130814,0.000146318
1312466190814,0.000145755
1312466250814,0.000144597
1312466310814,0.000143362
1312466370814,0.000143615
1312466430823,0.000143913
1312466490823,0.000144809
1312466550823,0.000143857
1312466610823,0.000144965
1312466670823,0.000144128
1312466730823,0.000143223
1312466790823,0.000144425
1312466850823,0.000144273
1312466910823,0.000144394
1312466970823,0.000143908
1312467030823,0.000144994
1312467090823,0.000146721
1312467150823,0.000150197
1312467210823,0.000147488
1312467270823,0.000147711
1312467330823,0.000149049
1312467390823,0.000148629
1312467450823,0.000148450
1312467510823,0.000146824
1312467570823,0.000146347
1312467630823,0.000146802
1312467690823,0.000147290
1312467750823,0.000147137
1312467810823,0.000145261
1312467870823,0.000144628
1312467930823,0.000146356
1312467990823,0.000146568
1312468050823,0.000146099
1312468110823,0.000145362
1312468170823,0.000144607
1312468230823,0.000142991
1312468290823,0.000144152
1312468350823,0.000144899
1312468410823,0.000145256
1312468470823,0.000144272
1312468530823,0.000145269
1312468590823,0.000145865
1312468650823,0.000145887
1312468710823,0.000145694
1312468770823,0.000145267
1312468830823,0.000143602
1312468890823,0.000143192
1312468950823,0.000142489
1312469010823,0.000144521
1312469070823,0.000143184
1312469130823,0.000143618
1312469190823,0.000143972
1312469250823,0.000145064
1312469310823,0.000144236
1312469370823,0.000143725
1312469430823,0.000141602
1312469490823,0.000142286
1312469550823,0.000144403
1312469610823,0.000143142
1312469670823,0.000143594
1312469730823,0.000143597
1312469790823,0.000142276
1312469850823,0.000144026
1312469910823,0.000141880
1312469970823,0.000143483
1312470030833,0.000143151
1312470090833,0.000143964
1312470150833,0.000143133
1312470210833,0.000144841
1312470270833,0.000143551
1312470330833,0.000142748
1312470390833,0.000143020
1312470450833,0.000144096
1312470510833,0.000142954
1312470570833,0.000142013
1312470630833,0.000143787
1312470690833,0.000142052
1312470750833,0.000142514
1312470810833,0.000142514
1312470870833,0.000142437
1312470930833,0.000143818
1312470990833,0.000142596
1312471050833,0.000143685
1312471110833,0.000142502
1312471170833,0.000142566
1312471230833,0.000143461
1312471290833,0.000143939
1312471350833,0.000144782